Belize City, Belize

7:30 AM CST on December 04, 2016 (GMT -0600)
Philip S W Goldson International

Weather History for MZBZ - September, 2013

Change the Weather History Date:

Saturday, September 28, 2013

  Actual Average Record
Temperature  
Mean Temperature 84 °F -  
Max Temperature 89 °F 86 °F 91 °F (1997)
Min Temperature 78 °F 76 °F 73 °F (2002)
Cooling Degree Days 18    
Growing Degree Days 34 (Base 50)    
Moisture  
Dew Point 78 °F    
Average Humidity 77    
Maximum Humidity 100    
Minimum Humidity 63    
Precipitation  
Precipitation 0.00 in - - ()
Sea Level Pressure  
Sea Level Pressure 29.90 in    
Wind  
Wind Speed 5 mph ()    
Max Wind Speed 10 mph    
Max Gust Speed -    
Visibility 8.8 miles    
Events      
Averages and records for this station are not official NWS values.
T = Trace of Precipitation, MM = Missing Value Source: Averaged Metar Reports

Daily Weather History Graph

Daily Weather History Graph

Search for Another Location

Airport or City:

Trip Planner

Search our weather history database for the weather conditions in past years. The results will help you decide how hot, cold, wet, or windy it might be!

Date:

Astronomy

Sep. 28, 2013 Rise Set
Actual Time 5:43 AM CST 5:44 PM CST
Civil Twilight 5:21 AM CST 6:05 PM CST
Nautical Twilight 4:56 AM CST 6:30 PM CST
Astronomical Twilight 4:31 AM CST 6:56 PM CST
Moon 12:14 AM CST (9/28) 1:22 PM CST (9/28)
Length of Visible Light 12h 44m
Length of Day
12h 01m
Waning Crescent, 35% of the Moon is Illuminated
Sep 28
Waning Crescent
Oct 4
New
Oct 11
First Quarter
Oct 18
Full
Oct 26
Last Quarter

Hourly Weather History & Observations

Time (CST) Temp. Heat Index Dew Point Humidity Pressure Visibility Wind Dir Wind Speed Gust Speed Precip Events Conditions
12:00 AM 82 °F - 77 °F 82% 29.90 in 12 mi ESE 3.5 mph - -   Scattered Clouds
3:00 AM 80 °F - 77 °F 87% 29.87 in 12 mi ESE 3.5 mph - -   Partly Cloudy
5:00 AM 78.8 °F - 78.8 °F 100% 29.85 in 6.2 mi ESE 3.5 mph - N/A   Partly Cloudy
6:00 AM 78.8 °F - 77.0 °F 94% 29.89 in 6.2 mi East 2.3 mph - N/A   Partly Cloudy
7:00 AM 82.4 °F 92.4 °F 78.8 °F 89% 29.91 in 6.2 mi East 2.3 mph - N/A   Partly Cloudy
8:00 AM 86.0 °F 99.3 °F 78.8 °F 79% 29.92 in 6.2 mi ESE 5.8 mph - N/A   Scattered Clouds
9:00 AM 87 °F - 79 °F 70% 29.94 in 16 mi East 8.1 mph - -   Partly Cloudy
9:00 AM 86.0 °F 99.3 °F 78.8 °F 79% 29.93 in 6.2 mi East 8.1 mph - N/A   Scattered Clouds
10:00 AM 89.6 °F 104.7 °F 78.8 °F 70% 29.94 in 6.2 mi ESE 6.9 mph - N/A   Scattered Clouds
11:00 AM 86.0 °F 99.3 °F 78.8 °F 79% 29.93 in 6.2 mi ESE 5.8 mph - N/A   Scattered Clouds
12:00 PM 87 °F - 76 °F 63% 29.91 in 14 mi East 6.9 mph - -   Partly Cloudy
12:00 PM 87.8 °F 99.7 °F 77.0 °F 70% 29.91 in 6.2 mi East 6.9 mph - N/A   Scattered Clouds
1:00 PM 89.6 °F 102.2 °F 77.0 °F 66% 29.89 in 6.2 mi ESE 5.8 mph - N/A   Partly Cloudy
2:00 PM 87.8 °F 99.7 °F 77.0 °F 70% 29.87 in 6.2 mi East 8.1 mph - N/A   Partly Cloudy
3:00 PM 88 °F - 79 °F 69% 29.86 in 16 mi ENE 10.4 mph - -   Partly Cloudy
3:00 PM 87.8 °F 102.5 °F 78.8 °F 75% 29.85 in 6.2 mi ENE 10.4 mph - N/A   Scattered Clouds
4:00 PM 87.8 °F 99.7 °F 77.0 °F 70% 29.85 in 6.2 mi East 9.2 mph - N/A   Scattered Clouds
5:00 PM 86.0 °F 96.9 °F 77.0 °F 74% 29.87 in 6.2 mi East 6.9 mph - N/A   Partly Cloudy
6:00 PM 83 °F - 77 °F 76% 29.89 in 16 mi ESE 4.6 mph - -   Scattered Clouds
6:00 PM 82.4 °F 90.9 °F 77.0 °F 84% 29.89 in 6.2 mi ESE 4.6 mph - N/A   Scattered Clouds
9:00 PM 82 °F - 77 °F 80% 29.94 in 12 mi East 4.6 mph - -   Scattered Clouds